Simultaneous Nadir Overpasses (SNOs) Predictions

Prediction of SNOs between AQUA and NOAA-19 Satellite Orbit:

Table of predicted SNOs for the next 14.0 days since TLE Epoch: 11/4/2023
Index Date (AQUA) Time (AQUA) Lat,Lon (AQUA) SZA (AQUA ) Date (NOAA-19) Time (NOAA-19) Lat,Lon (NOAA-19) SZA (NOAA-19 ) Distance(km) Time Diff (sec)
1 11/05/2023 13:24:09 76.08, -27.80 91.72 11/05/2023 13:23:43 76.08, -27.91 91.72 3.11 26
2 11/05/2023 14:13:33 -76.13, 139.69 88.22 11/05/2023 14:14:36 -76.16, 139.67 88.19 3.42 63
3 11/07/2023 18:05:23 76.09, -98.10 92.38 11/07/2023 18:05:01 76.09, -98.14 92.38 1.05 22
4 11/07/2023 18:54:47 -76.14, 69.39 87.56 11/07/2023 18:55:55 -76.13, 69.27 87.57 3.48 68
5 11/09/2023 22:46:36 76.10,-168.41 93.02 11/09/2023 22:46:19 76.09,-168.40 93.02 0.92 17
6 11/09/2023 23:36:00 -76.14, -0.91 86.92 11/09/2023 23:37:13 -76.13, -0.99 86.94 3.11 73
7 11/12/2023 03:27:48 76.11, 121.27 93.65 11/12/2023 03:27:37 76.08, 121.31 93.62 3.61 11
8 11/12/2023 04:17:15 -76.30, -71.68 86.15 11/12/2023 04:18:26 -76.34, -70.45 86.13 32.61 71
9 11/14/2023 08:08:58 76.08, 51.11 94.20 11/14/2023 08:08:54 76.11, 51.14 94.23 2.86 4
10 11/14/2023 08:58:32 -76.60,-142.97 85.25 11/14/2023 08:59:37 -76.63,-139.57 85.26 87.58 65
11 11/16/2023 12:50:08 76.10, -19.22 94.79 11/16/2023 12:50:12 76.08, -19.23 94.76 2.86 4



Historial Predications of SNOs between AQUA and NOAA-19
